This is the latest recevied weather packets stored in our database for station/object OE5HCE. If no packets are shown the sender has not sent any weather packets the latest 10 day(s).
| Time | Temp. | Humidity | Pressure | Rain* | Wind** | Luminosity | Snow |
|---|---|---|---|---|---|---|---|
| 1787691607 | 15.56° C | 33% | 1017.5 hPa | 0 mm | - | 0 W/m² | - |
| 1787690706 | 16.11° C | 34% | 1017.5 hPa | 0 mm | - | 0 W/m² | - |
| 1787689804 | 16.11° C | 34% | 1017.4 hPa | 0 mm | - | 0 W/m² | - |
| 1787688904 | 16.11° C | 36% | 1017.4 hPa | 0 mm | - | 0 W/m² | - |
| 1787688002 | 16.11° C | 38% | 1017.4 hPa | 0 mm | - | 0 W/m² | - |
| 1787687161 | 16.11° C | 39% | 1017.3 hPa | 0 mm | - | 0 W/m² | - |
| 1787686258 | 16.11° C | 43% | 1017.2 hPa | 0 mm | - | 0 W/m² | - |
| 1787685364 | 16.11° C | 45% | 1017.3 hPa | 0.51 mm | - | 0 W/m² | - |
| 1787684457 | 16.67° C | 48% | 1017.3 hPa | 0.51 mm | - | 0 W/m² | - |
| 1787683588 | 16.67° C | 53% | 1017.1 hPa | 0.51 mm | - | 0 W/m² | - |
| 1787682650 | 16.67° C | 56% | 1016.8 hPa | 1.02 mm | - | 0 W/m² | - |
| 1787681748 | 16.67° C | 59% | 1016.7 hPa | 0.51 mm | - | 0 W/m² | - |
| 1787680847 | 16.67° C | 62% | 1016.6 hPa | 0.51 mm | - | 0 W/m² | - |
| 1787679945 | 16.67° C | 63% | 1016.4 hPa | 0.51 mm | - | 0 W/m² | - |
| 1787679047 | 17.22° C | 64% | 1016.2 hPa | 0 mm | - | 0 W/m² | - |
| 1787678150 | 17.22° C | 63% | 1016.1 hPa | 0 mm | - | 7 W/m² | - |
| 1787677242 | 17.22° C | 61% | 1016 hPa | 0 mm | - | 9 W/m² | - |
| 1787676340 | 17.22° C | 58% | 1015.8 hPa | 0 mm | - | 7 W/m² | - |
| 1787675437 | 17.22° C | 56% | 1015.6 hPa | 0 mm | - | 12 W/m² | - |
| 1787674541 | 17.22° C | 59% | 1015.6 hPa | 0.25 mm | - | 23 W/m² | - |
| 1787673633 | 17.22° C | 61% | 1015.6 hPa | 0.25 mm | - | 23 W/m² | - |
| 1787672737 | 17.78° C | 64% | 1015.4 hPa | 0.25 mm | - | 42 W/m² | - |
| 1787671832 | 17.78° C | 68% | 1015.3 hPa | 0.25 mm | - | 44 W/m² | - |
| 1787670933 | 17.78° C | 73% | 1015.3 hPa | 0 mm | - | 58 W/m² | - |
| 1787670028 | 18.33° C | 75% | 1015.2 hPa | 0 mm | - | 65 W/m² | - |
* Rain latest hour (hover to see other rain measurements)
** Current wind speed in m/s (hover to see current wind gust speed)